TimeCST,TemperatureF,Dew PointF,Humidity,Sea Level PressureIn,VisibilityMPH,Wind Direction,Wind SpeedMPH,Gust SpeedMPH,PrecipitationIn,Events,Conditions,WindDirDegrees,DateUTC
12:15 AM,41.0,39.2,93,29.71,5.0,SSW,4.6,-,N/A,,Clear,200,2012-12-09 06:15:00
12:35 AM,41.0,37.4,87,29.70,5.0,Calm,Calm,-,N/A,,Clear,0,2012-12-09 06:35:00
12:55 AM,37.4,37.4,100,29.72,4.0,Calm,Calm,-,N/A,,Clear,0,2012-12-09 06:55:00
1:15 AM,37.4,35.6,93,29.72,3.0,Calm,Calm,-,N/A,,Clear,0,2012-12-09 07:15:00
1:35 AM,35.6,35.6,100,29.75,0.5,North,5.8,-,N/A,Fog,Fog,360,2012-12-09 07:35:00
1:55 AM,37.4,35.6,93,29.76,2.0,NNE,6.9,-,N/A,,Mostly Cloudy,20,2012-12-09 07:55:00
2:15 AM,39.2,39.2,100,29.77,4.0,NNE,4.6,-,N/A,,Overcast,20,2012-12-09 08:15:00
2:35 AM,41.0,39.2,93,29.78,3.0,North,5.8,-,N/A,,Overcast,10,2012-12-09 08:35:00
2:55 AM,42.8,41.0,93,29.80,4.0,NNE,13.8,-,N/A,,Overcast,20,2012-12-09 08:55:00
3:15 AM,42.8,41.0,93,29.81,4.0,NNE,15.0,-,N/A,,Overcast,20,2012-12-09 09:15:00
3:35 AM,41.0,41.0,100,29.83,4.0,North,18.4,24.2,N/A,,Overcast,10,2012-12-09 09:35:00
3:55 AM,41.0,39.2,93,29.84,3.0,North,12.7,18.4,N/A,,Overcast,10,2012-12-09 09:55:00
4:15 AM,41.0,39.2,93,29.85,5.0,North,10.4,-,N/A,,Overcast,10,2012-12-09 10:15:00
4:35 AM,41.0,39.2,93,29.87,7.0,North,10.4,19.6,N/A,,Overcast,360,2012-12-09 10:35:00
4:55 AM,41.0,39.2,93,29.88,7.0,North,12.7,23.0,N/A,,Overcast,360,2012-12-09 10:55:00
5:15 AM,41.0,37.4,87,29.88,7.0,North,15.0,20.7,N/A,,Overcast,10,2012-12-09 11:15:00
5:35 AM,41.0,35.6,81,29.88,7.0,North,16.1,24.2,N/A,,Overcast,360,2012-12-09 11:35:00
5:55 AM,39.2,33.8,81,29.89,10.0,NNE,16.1,23.0,N/A,,Overcast,20,2012-12-09 11:55:00
6:15 AM,37.4,32.0,81,29.91,10.0,North,12.7,16.1,N/A,,Scattered Clouds,10,2012-12-09 12:15:00
6:35 AM,37.4,30.2,75,29.92,10.0,North,8.1,-,N/A,,Mostly Cloudy,360,2012-12-09 12:35:00
6:55 AM,37.4,30.2,75,29.93,10.0,North,9.2,-,N/A,,Overcast,360,2012-12-09 12:55:00
7:15 AM,37.4,30.2,75,29.95,10.0,North,9.2,-,N/A,,Overcast,360,2012-12-09 13:15:00
7:35 AM,37.4,28.4,70,29.95,10.0,North,10.4,17.3,N/A,,Overcast,10,2012-12-09 13:35:00
7:55 AM,37.4,26.6,65,29.96,10.0,North,10.4,-,N/A,,Overcast,10,2012-12-09 13:55:00
8:15 AM,37.4,23.0,56,29.98,10.0,North,9.2,-,N/A,,Overcast,350,2012-12-09 14:15:00
8:35 AM,37.4,23.0,56,29.99,10.0,North,12.7,16.1,N/A,,Overcast,360,2012-12-09 14:35:00
8:55 AM,37.4,19.4,48,30.01,10.0,North,15.0,21.9,N/A,,Overcast,360,2012-12-09 14:55:00
9:35 AM,37.4,15.8,41,30.04,10.0,North,19.6,26.5,N/A,,Overcast,10,2012-12-09 15:35:00
9:55 AM,37.4,14.0,38,30.05,10.0,North,17.3,25.3,N/A,,Overcast,10,2012-12-09 15:55:00
10:15 AM,37.4,14.0,38,30.07,10.0,North,20.7,27.6,N/A,,Overcast,360,2012-12-09 16:15:00
10:35 AM,37.4,10.4,33,30.08,10.0,North,19.6,28.8,N/A,,Overcast,10,2012-12-09 16:35:00
10:55 AM,41.0,12.2,31,30.09,10.0,North,18.4,28.8,N/A,,Mostly Cloudy,360,2012-12-09 16:55:00
11:15 AM,41.0,10.4,29,30.09,10.0,North,18.4,24.2,N/A,,Scattered Clouds,360,2012-12-09 17:15:00
11:35 AM,41.0,10.4,29,30.08,10.0,North,18.4,27.6,N/A,,Clear,10,2012-12-09 17:35:00
11:55 AM,41.0,8.6,26,30.08,10.0,North,21.9,29.9,N/A,,Clear,360,2012-12-09 17:55:00
12:15 PM,41.0,8.6,26,30.08,10.0,North,15.0,31.1,N/A,,Clear,360,2012-12-09 18:15:00
12:35 PM,41.0,8.6,26,30.07,10.0,North,21.9,25.3,N/A,,Clear,10,2012-12-09 18:35:00
12:55 PM,41.0,8.6,26,30.05,10.0,North,19.6,26.5,N/A,,Clear,360,2012-12-09 18:55:00
1:15 PM,41.0,8.6,26,30.04,10.0,North,21.9,27.6,N/A,,Clear,360,2012-12-09 19:15:00
1:35 PM,41.0,8.6,26,30.05,10.0,North,20.7,28.8,N/A,,Clear,10,2012-12-09 19:35:00
1:55 PM,39.2,8.6,28,30.05,10.0,North,17.3,27.6,N/A,,Clear,360,2012-12-09 19:55:00
2:15 PM,37.4,8.6,30,30.06,10.0,North,20.7,29.9,N/A,,Clear,360,2012-12-09 20:15:00
2:35 PM,37.4,8.6,30,30.06,10.0,North,18.4,29.9,N/A,,Clear,360,2012-12-09 20:35:00
2:55 PM,37.4,8.6,30,30.07,10.0,North,20.7,27.6,N/A,,Clear,360,2012-12-09 20:55:00
3:15 PM,35.6,8.6,33,30.07,10.0,North,21.9,31.1,N/A,,Clear,360,2012-12-09 21:15:00
3:35 PM,35.6,8.6,33,30.08,10.0,North,19.6,32.2,N/A,,Clear,10,2012-12-09 21:35:00
3:55 PM,33.8,8.6,35,30.09,10.0,North,19.6,27.6,N/A,,Clear,350,2012-12-09 21:55:00
4:15 PM,33.8,8.6,35,30.09,10.0,North,17.3,23.0,N/A,,Clear,360,2012-12-09 22:15:00
4:35 PM,32.0,8.6,38,30.10,10.0,North,19.6,27.6,N/A,,Clear,10,2012-12-09 22:35:00
4:55 PM,32.0,8.6,38,30.11,10.0,North,15.0,25.3,N/A,,Scattered Clouds,360,2012-12-09 22:55:00
5:15 PM,32.0,8.6,38,30.12,10.0,NNW,19.6,25.3,N/A,,Mostly Cloudy,340,2012-12-09 23:15:00
5:35 PM,32.0,8.6,38,30.13,10.0,North,16.1,25.3,N/A,,Overcast,350,2012-12-09 23:35:00
5:55 PM,32.0,5.0,32,30.13,10.0,North,19.6,25.3,N/A,,Mostly Cloudy,360,2012-12-09 23:55:00
6:15 PM,32.0,6.8,35,30.14,10.0,North,18.4,26.5,N/A,,Scattered Clouds,360,2012-12-10 00:15:00
6:35 PM,32.0,6.8,35,30.15,10.0,North,19.6,25.3,N/A,,Mostly Cloudy,350,2012-12-10 00:35:00
6:55 PM,32.0,6.8,35,30.16,10.0,North,17.3,23.0,N/A,,Overcast,360,2012-12-10 00:55:00
7:15 PM,32.0,6.8,35,30.17,10.0,North,16.1,25.3,N/A,,Overcast,350,2012-12-10 01:15:00
7:35 PM,32.0,5.0,32,30.19,10.0,North,19.6,23.0,N/A,,Overcast,350,2012-12-10 01:35:00
7:55 PM,32.0,5.0,32,30.19,10.0,North,20.7,26.5,N/A,,Overcast,350,2012-12-10 01:55:00
8:15 PM,32.0,5.0,32,30.19,10.0,North,23.0,29.9,N/A,,Overcast,350,2012-12-10 02:15:00
8:35 PM,32.0,5.0,32,30.19,10.0,North,23.0,34.5,N/A,,Overcast,350,2012-12-10 02:35:00
8:55 PM,32.0,5.0,32,30.19,10.0,North,25.3,32.2,N/A,,Scattered Clouds,350,2012-12-10 02:55:00
9:15 PM,30.2,5.0,34,30.21,10.0,NNW,19.6,26.5,N/A,,Scattered Clouds,340,2012-12-10 03:15:00
9:35 PM,30.2,5.0,34,30.20,10.0,North,21.9,27.6,N/A,,Overcast,350,2012-12-10 03:35:00
9:55 PM,30.2,5.0,34,30.21,10.0,North,20.7,27.6,N/A,,Overcast,350,2012-12-10 03:55:00
10:15 PM,28.4,14.0,55,30.21,5.0,North,21.9,29.9,N/A,Snow,Light Snow,350,2012-12-10 04:15:00
10:35 PM,28.4,6.8,40,30.21,10.0,North,19.6,23.0,N/A,,Overcast,360,2012-12-10 04:35:00
10:55 PM,28.4,5.0,37,30.21,10.0,North,17.3,27.6,N/A,,Mostly Cloudy,350,2012-12-10 04:55:00
11:15 PM,28.4,5.0,37,30.21,10.0,North,19.6,27.6,N/A,,Scattered Clouds,350,2012-12-10 05:15:00
11:35 PM,28.4,5.0,37,30.21,10.0,NNW,21.9,28.8,N/A,,Clear,340,2012-12-10 05:35:00
11:55 PM,26.6,5.0,40,30.21,10.0,NNW,20.7,29.9,N/A,,Clear,340,2012-12-10 05:55:00